sat.trackr.live / text

‹ back to catalog

STARLINK-34428

NORAD 64293 · 2025-123C

PAYLOAD ACTIVE UNKNOWN

§ Identity

Operator
Country
US
Launch date
2025-06-08
Launch site
AFWTR
Launch vehicle
Mass (kg)
RCS (m²)

Purposes: comms

External: N2YO · Heavens-Above · Gunter

§ Orbital elements

Epoch: 2026-09-20T22:00:44.235360Z

Period
94.09 min
Inclination
69.9997°
Eccentricity
0.0003058
Mean motion
15.30421858 rev/d
Perigee alt
472.5 km
Apogee alt
476.6 km
Semi-major
6,852.7 km
B*
3.7909e-4
RAAN
59.7497°
Arg perigee
277.3375°
Mean anomaly
82.7453°
Rev number
7,214

§ Raw data

STARLINK-344281 64293U 25123C   26263.91717865  .00011071  00000+0  37909-3 0  99902 64293  69.9997  59.7497 0003058 277.3375  82.7453 15.30421858 72146

JSON: /api/v1/satellites/64293 · /tle

For live sub-satellite position, see the globe view (requires WebGL).

§ Visibility from observer

Set your observer location to see the next 7 days of passes ≥ 10°. The values pass through the URL so the page stays shareable.

No JS? Fill the form by hand. The geolocation button needs JavaScript.